Location: Ferchesar
(52.6477°N, 12.4298°E)
Time: 23:09:12
(UTC+01:00)

TIGRISAT - Pass Details

Date: 25 October 2021
Orbit: 603 x 689 km, 97.7° (Epoch: 30 November)

Event Time Altitude Azimuth Distance (km) Brightness Sun altitude
Rises 05:21:48 0° 108° (ESE) 3,052 ? -23.6°
Reaches altitude 10° 05:25:04 10° 83° (E) 2,132 ? -23.1°
Maximum altitude 05:27:24 14° 53° (NE) 1,876 ? -22.8°
Drops below altitude 10° 05:29:43 10° 23° (NNE) 2,120 ? -22.4°
Sets 05:32:57 0° 358° (N) 3,023 ? -21.9°
